Regional Weather Roundup
Issued by NWS

Home | Current Version | Previous Version | Text Only | Print | Product List | Glossary Off
Versions: 1 2 3 4 5 6 7 8 9 10 11 12 13 14 15 16 17 18 19 20 21 22 23 24 25 26 27 28 29 30 31 32 33 34 35 36 37 38 39 40 41 42 43 44 45 46 47 48 49 50

000
ASUS43 KMPX 200410
RWRMN
WEATHER ROUNDUP FOR MINNESOTA
NATIONAL WEATHER SERVICE TWIN CITIES/CHANHASSEN MN
1100 PM CDT FRI SEP 19 2014


NOTE: "FAIR" INDICATES FEW OR NO CLOUDS BELOW 12,000 FEET WITH NO
SIGNIFICANT WEATHER AND/OR OBSTRUCTIONS TO VISIBILITY. N/A MEANS
CURRENT SKY AND/OR WEATHER CONDITIONS ARE NOT AVAILABLE.

MNZ060>063-068>070-200500-
   Twin Cities Metro

CITY           SKY/WX    TMP DP  RH WIND       PRES   REMARKS
TWIN CITIES    PTCLDY    73  66  78 SW6       29.66F
ST PAUL        MOCLDY    68  65  90 E6        29.66F
CRYSTAL        PTCLDY    66  63  90 S3        29.63F FOG
BLAINE         PTCLDY    66  66 100 S3        29.65F
LAKEVILLE      MOCLDY    73  66  78 SW3       29.67F
EDEN PRAIRIE   PTCLDY    70  66  87 S5        29.64F
SOUTH ST PAUL  MOCLDY    71  66  83 S3        29.66F
LAKE ELMO      FAIR      70  64  83 SW5       29.68S
$$
MNZ001>005-007-008-013>017-022>024-027-028-200500-
   Northwest Minnesota

CITY           SKY/WX    TMP DP  RH WIND       PRES   REMARKS
BEMIDJI        PTCLDY    64  62  94 SW6       29.58R
HALLOCK        CLOUDY    59  55  88 NW13      29.66R
ROSEAU         MOCLDY    59  54  82 N8        29.61R
WARROAD        CLOUDY    61  57  88 NW9       29.61R
THIEF RVR FALL MOCLDY    63  57  82 NW13G20   29.63R
CROOKSTON      CLOUDY    63  57  82 N18       29.65R
FOSSTON        PTCLDY    63  57  82 NW13G20   29.62R
DETROIT LAKES  PTCLDY    70  57  64 W10       29.65R
MOORHEAD       MOCLDY    72  55  56 NW14G20   29.65R
PARK RAPIDS    PTCLDY    65  63  93 SW9       29.61F
MAHNOMEN       FAIR      65  57  74 NW9       29.62R
$$
MNZ006-009>011-018-025>026-200500-
   North Central Minnesota

CITY           SKY/WX    TMP DP  RH WIND       PRES   REMARKS
BAUDETTE       CLOUDY    58  56  93 W3        29.57R
FLAG ISLAND    CLOUDY    59  57  94 NW15      29.58R
INTL FALLS     LGT RAIN  60  58  92 SE5       29.55F
WASKISH        MOCLDY    63  61  94 CALM      29.58R
BIG FORK       CLOUDY    64  63  94 SW7       29.59S FOG
LONGVILLE      PTCLDY    63  63 100 SW6       29.60F FOG
GRAND RAPIDS   CLOUDY    63  61  94 S9        29.60F
CRANE LAKE     CLOUDY    59  57  94 CALM      29.60F FOG
ORR            CLOUDY    61  57  88 S7        29.56F FOG
COOK           CLOUDY    61  61 100 S6        29.60F
WALKER         FAIR      65  63  91 SW13      29.58F
$$
MNZ012-019>021-037-200500-
   Northeast Minnesota

CITY           SKY/WX    TMP DP  RH WIND       PRES   REMARKS
DULUTH         MOCLDY    64  61  90 W12       29.63F FOG
ELY            CLOUDY    61  57  88 S5        29.60F
HIBBING        CLOUDY    63  61  93 SW3       29.61F
EVELETH        CLOUDY    63  61  94 CALM      29.63R
DULUTH HARBOR  CLOUDY    61  59  94 S9        29.63S FOG
TWO HARBORS    CLOUDY    61  55  82 SW5       29.60F HAZE
SILVER BAY     PTCLDY    63  63 100 CALM      29.60S
GRAND MARAIS     N/A     54  53  97 CALM      29.60F
G MARAIS ARPRT CLOUDY    59  55  88 W6        29.63F
$$
MNZ029>031-032-039>041-046>048-054>057-064-200500-
   West Central Minnesota

CITY           SKY/WX    TMP DP  RH WIND       PRES   REMARKS
FERGUS FALLS   MOCLDY    66  61  82 W8        29.65R
WHEATON        PTCLDY    66  61  82 SW8       29.68S
MORRIS         CLEAR     66  63  88 W9        29.66S
ALEXANDRIA     CLEAR     66  63  90 SW8       29.67F
ELBOW LAKE     FAIR      66  62  87 W12       29.65S
WADENA         PTCLDY    64  63  94 SW7       29.63S
GLENWOOD       CLEAR     66  64  94 SW7       29.67F
APPLETON       CLEAR     64  61  88 W5        29.66F
BENSON         CLEAR     64  63  94 W6        29.66F
ORTONVILLE     CLEAR     73  61  64 NW10      29.67S
MADISON        CLEAR     68  64  88 W5        29.67F
WILLMAR        FAIR      66  63  88 W3        29.67F
$$
MNZ033>034-036-042>043-049>051-058-059-200500-
   Central Minnesota

CITY           SKY/WX    TMP DP  RH WIND       PRES   REMARKS
ST CLOUD       FOG       60  59  96 CALM      29.64F VSB 1/4
SAUK CENTRE    FAIR      64  63  96 SW7       29.66F
PAYNESVILLE    CLEAR     60  60 100 SW7       29.66F FOG
AITKIN         HAZE      61  54  77 CALM      29.61F VSB<1/4
PINE RIVER     PTCLDY    63  63 100 CALM      29.65F FOG
BRAINERD       FOG       59  59 100 SW6       29.63F VSB 3/4
STAPLES        CLEAR     63  63 100 SW6       29.63F
LONG PRAIRIE   FOG       59  59 100 S6        29.66F VSB 3/4
LITTLE FALLS   FOG       59  57  94 CALM      29.65F VSB 1/4
LITCHFIELD     CLEAR     66  66 100 CALM      29.66F
BUFFALO          N/A     62  60  94 CALM      29.65F FOG
MAPLE LAKE     CLEAR     68  66  94 SW5       29.65F
$$
MNZ037-044-045-052-053-200500-
   East Central Minnesota

CITY           SKY/WX    TMP DP  RH WIND       PRES   REMARKS
PRINCETON      CLOUDY    59  57  94 CALM      29.65F VSB<1/4
MORA           FOG       54  52  94 CALM      29.66F VSB 1/4
CAMBRIDGE      HAZE      63  54  72 S3        29.62F VSB 1
RUSH CITY      PTCLDY    62  60  95 S3        29.64F
MOOSE LAKE     FOG       57  55  94 CALM      29.62F VSB<1/4
HINCKLEY       FOG       54  54 100 CALM      29.64F VSB 1/4
CLOQUET        CLOUDY    63  61  94 SW3       29.64F FOG
MCGREGOR       CLOUDY    61  59  94 CALM      29.63F VSB<1/4
$$
MNZ071>073-080-081-089-090-097-098-200500-
   Southwest Minnesota

CITY           SKY/WX    TMP DP  RH WIND       PRES   REMARKS
MONTEVIDEO     PTCLDY    66  63  88 W3        29.67F
GRANITE FALLS  PTCLDY    64  62  95 SW6       29.68F
CANBY          PTCLDY    69  64  82 W8        29.70S
MARSHALL       PTCLDY    68  63  83 W8        29.68S
REDWOOD FALLS  CLOUDY    71  66  84 W8        29.67F
OLIVIA         PTCLDY    66  63  88 W3        29.66F
PIPESTONE      MOCLDY    68  61  77 S6        29.74R
WINDOM         CLOUDY    73  63  68 S9        29.72R
WORTHINGTON    CLOUDY    72  64  78 S7        29.75S
JACKSON        CLOUDY    70  64  83 S13       29.75F
TRACY          CLOUDY    71  67  86 CALM      29.71R
SLAYTON        MOCLDY    71  56  59 CALM      29.72S
$$
MNZ065>067-074>077-082>085-091>093-200500-
   South Central Minnesota

CITY           SKY/WX    TMP DP  RH WIND       PRES   REMARKS
MANKATO        MOCLDY    73  64  73 S13       29.70S
NEW ULM        MOCLDY    70  68  94 CALM      29.68S
ST JAMES       CLOUDY    72  66  83 S8        29.70S
FAIRMONT       CLOUDY    73  61  64 W6        29.76R THUNDER
GLENCOE        PTCLDY    69  64  83 CALM      29.64F
FARIBAULT      CLOUDY    75  64  69 S7        29.71F
OWATONNA       MOCLDY    72  66  83 S12       29.72F
WASECA         MOCLDY    72  64  78 S13       29.76R
ALBERT LEA     MOCLDY    72  66  83 S13G20    29.73F
$$
MNZ078>079-086>088-094>096-200500-
   Southeast Minnesota

CITY           SKY/WX    TMP DP  RH WIND       PRES   REMARKS
ROCHESTER      PTCLDY    68  63  84 S17G25    29.74F
RED WING       CLOUDY    73  66  78 SW5       29.69S
STANTON        MOCLDY    73  66  78 S8        29.66F
DODGE CENTER   LGT RAIN  70  64  83 S15       29.73F
WINONA         MOCLDY    70  61  73 SW10G20   29.73F
AUSTIN         MOCLDY    66  64  94 S13       29.75F
PRESTON        PTCLDY    66  64  94 S16G24    29.77F
$$
ABBREVIATIONS USED IN REMARKS
   TC - TEMPERATURES IN CELSIUS
  WCI - WIND CHILL INDEX
   HX - HEAT INDEX
  VSB - VISIBILITY
$$


USA.gov is the U.S. government's official web portal to all federal, state and local government web resources and services.